Manuel Greco

Recruteur en chef - Empoli
3 Déc 2028
Dimanche
Processus

Personnalité

Adaptabilité (12) Ambition (2) Controverse (17) Loyauté (10) Pression (12) Professionnalisme (2) Sportivité (16) Tempérament (19)

Profil

Style d'entraînement Démocratique
Diplôme Continental B
Détermination 4
Gestion des joueurs 13
Motivation 10
Discipline 4
Satisfaction professionnelle
44%
Fatigue
0%
Rôle Recruteur en chef
Salaire 13.5K p/s
Contrat 14.03.2030

Performance

Comportement Bon
Efficacité de l'entraînement
21%
Développement des joueurs
50%
Prévention des blessures
25%
Mise en place tactique
60%

Événements récents

A participé à une réunion de recrutement maintenant
A recommandé une cible de transfert maintenant
A recommandé une cible de transfert maintenant
A recommandé une cible de transfert maintenant
A recommandé une cible de transfert 7j
A recommandé une cible de transfert 7j
A recommandé une cible de transfert 7j
A recommandé une cible de transfert 7j

Suivi en cours

139
Joueur Club Statut Capacité Confiance Observé Dernière observation Dernier vote
Stefano Mazzini Carrarese Actif 109 / 102 65% 1 07.08.2028 Approuver
André Miranda Porto Actif 112 / 119 40% 3 31.05.2028 -
Ben Broggio Mansfield Town Actif 107 / 117 40% 1 31.05.2028 -
Francisco Fernandes Porto Actif 94 / 109 40% 1 31.05.2028 -
Alessio Insignito Spezia Actif 95 / 110 40% 4 13.05.2028 -
Tobías Ramírez River Plate Actif 117 / 131 40% 1 10.05.2028 -
Nicolò Moranduzzo Renate Actif 101 / 103 40% 5 09.05.2028 -
Jan Bürger Northampton Town Actif 126 / 124 40% 4 09.05.2028 -
Kiani Inge Groningen Actif 107 / 120 40% 4 07.05.2028 -
Christos Mouzakitis Hull City Actif 129 / 143 40% 2 07.05.2028 -
Ayden Heaven Portsmouth Actif 144 / 150 40% 2 06.05.2028 -
Abubakar Adams Aduana Stars Actif 82 / 93 40% 2 03.05.2028 -
Jorthy Mokio ADO Den Haag Actif 135 / 137 40% 3 02.05.2028 -
Riquelme Thompson-Jones Accrington Stanley Actif 105 / 115 40% 1 02.05.2028 -
Augusto Bando Ascoli Actif 113 / 114 40% 3 01.05.2028 -
Vittorio Magni Cesena Actif 102 / 117 40% 1 01.05.2028 -
Simone Suppa Virtus Verona Actif 83 / 94 40% 6 30.04.2028 -
Federico Matarán Giana Erminio Actif 107 / 110 40% 3 28.04.2028 -
Andrea Cogoni Cosenza Actif 100 / 112 40% 2 27.04.2028 -
Tyler Fletcher Rotherham United Actif 114 / 115 40% 1 27.04.2028 -
Josh Nichols Oldham Athletic Actif 117 / 125 40% 3 24.04.2028 -
Denys Smetana Rukh Actif 109 / 104 40% 1 24.04.2028 -
Fabio Rispoli Como Actif 115 / 124 40% 1 23.04.2028 -
Bernardo Lima Porto Actif 112 / 117 40% 5 21.04.2028 -
Bence Szakos Aris Actif 94 / 96 40% 3 21.04.2028 -
Musa Danjuma Umraniyespor Actif 108 / 106 40% 1 19.04.2028 -
Kelian Le Pironnec Mirandés Actif 92 / 102 40% 1 18.04.2028 -
Trey Nyoni Rotherham United Actif 142 / 146 40% 3 16.04.2028 -
Martim Cunha Porto Actif 115 / 111 40% 3 14.04.2028 -
Andrea Bertoncini Triestina Actif 87 / 98 40% 2 12.04.2028 -
Andrey Ivlev Nizhniy Novgorod Actif 108 / 124 40% 5 11.04.2028 -
Matvey Bardachev Zenit Actif 104 / 115 40% 1 08.04.2028 -
Amine Boukamir Charleroi Actif 104 / 108 40% 3 30.03.2028 -
Othniël Raterink Cagliari Actif 124 / 120 40% 2 30.03.2028 -
Jon Esenga IF Elfsborg Actif 94 / 99 40% 2 27.03.2028 -
Tobiáš Pališčák Zlin Actif 104 / 109 40% 1 24.03.2028 -
Luka Vušković Tottenham Actif 139 / 151 40% 2 23.03.2028 -
Dimitar Papazov Levadiakos Actif 85 / 97 40% 1 20.03.2028 -
Miguel Figueiredo Benfica Actif 113 / 129 40% 2 14.03.2028 -
Claudio Martey Pianese Actif 91 / 93 40% 1 13.03.2028 -
Josh Acheampong Everton Actif 140 / 147 40% 1 09.03.2028 -
Toni Fruk Talleres Actif 132 / 133 89% 1 01.01.2028 Approuver
Sindre Walle Egeli Udinese Actif 136 / 141 40% 4 31.12.2027 -
Pedro Baltika Actif 125 / 135 40% 3 30.12.2027 -
Onyeuche Ujunwa Ikorodu City Actif 98 / 88 40% 1 28.12.2027 -
Giovanni Baroni Talleres Actif 117 / 117 40% 1 26.12.2027 -
Gorka Gorosabel Real Sociedad Actif 116 / 121 40% 1 26.12.2027 -
Emmanuel Ndubueze Shooting Stars Actif 82 / 103 40% 1 25.12.2027 -
Senny Mayulu Paris Saint-Germain Actif 157 / 155 40% 1 25.12.2027 -
Joel Ezra Enyimba Actif 89 / 102 40% 1 24.12.2027 -
Gabriele Bertolini Vicenza Actif 112 / 109 40% 3 23.12.2027 -
İsak Vural Audace Cerignola Actif 126 / 126 40% 1 21.12.2027 -
Edison Gruezo Guadalajara Actif 100 / 112 40% 1 21.12.2027 -
Luighi Palmeiras Actif 114 / 119 40% 1 20.12.2027 -
Kevin Filling AIK Actif 108 / 114 40% 1 20.12.2027 -
Alphadjo Cissé Lecce Actif 132 / 137 40% 2 19.12.2027 -
Chimobi Igwilo Rangers International Actif 91 / 94 40% 1 19.12.2027 -
Cristiano Oliveira New England Revolution Actif 94 / 95 40% 2 18.12.2027 -
Kwesi Sorotu Badori Berekum Chelsea Actif 87 / 101 40% 1 13.12.2027 -
Kabiru Abdullahi Barau Actif 100 / 94 40% 1 13.12.2027 -
Victor Hernandez Santa Fe Actif 107 / 131 40% 2 10.12.2027 -
Francisco Marchant Colo-Colo Actif 101 / 95 40% 1 06.12.2027 -
Francisco Triver River Plate Actif 91 / 92 40% 1 06.12.2027 -
Matias Siltanen Malmo FF Actif 113 / 133 40% 1 25.08.2027 -
Matteo Colombara Monopoli Actif 100 / 105 65% 1 02.08.2027 Approuver
Erick Sánchez RC Lens Actif 139 / 139 68% 1 01.06.2027 Approuver
Gonçalo Oliveira Benfica Actif 103 / 113 40% 1 31.05.2027 -
Matteo Lovato Padova Actif 127 / 135 40% 3 27.05.2027 -
Odilon Kossounou Atalanta Actif 142 / 139 40% 6 27.05.2027 -
Alen Vukaj Alcione Milano Actif 97 / 99 40% 1 27.05.2027 -
Enrico Delprato Parma Actif 134 / 141 40% 8 26.05.2027 -
Cesare Casadei Torino Actif 132 / 135 40% 2 26.05.2027 -
Ilario Monterisi Frosinone Actif 137 / 124 40% 3 25.05.2027 -
Giorgio Scalvini Atalanta Actif 148 / 149 40% 3 24.05.2027 -
Tommaso Pobega Bologna Actif 130 / 145 40% 6 22.05.2027 -
Charlie Gray Fleetwood Town Actif 84 / 96 40% 2 22.05.2027 -
Cristiano La Sorsa Trapani Actif 87 / 95 40% 1 22.05.2027 -
Anthony Oyono Frosinone Actif 131 / 124 40% 1 20.05.2027 -
Lewis Ferguson Bologna Actif 153 / 136 40% 7 15.05.2027 -
Danilo Veiga Lecce Actif 131 / 125 40% 6 15.05.2027 -
Adrián Bernabé Parma Actif 135 / 146 40% 8 13.05.2027 -
Billy Gilmour Napoli Actif 147 / 147 40% 3 12.05.2027 -
Víctor Guzmán Sporting CP Actif 101 / 105 40% 2 11.05.2027 -
Riyad Idrissi Cagliari Actif 117 / 121 40% 2 08.05.2027 -
Mitchel Bakker Modena Actif 124 / 123 40% 3 08.05.2027 -
Niccolò Pierozzi Palermo Actif 118 / 128 40% 1 08.05.2027 -
Gomolemo Kekana Maritzburg United Actif 95 / 117 40% 2 07.05.2027 -
João Abreu Porto Actif 82 / 95 40% 1 07.05.2027 -
Stefano Di Mario Virtus Entella Actif 130 / 118 40% 3 30.04.2027 -
Jordan Zemura Udinese Actif 143 / 138 40% 4 29.04.2027 -
Hans Nicolussi Caviglia Parma Actif 128 / 137 40% 3 29.04.2027 -
Mattia Della Rocca Pontedera Actif 90 / 98 40% 1 28.04.2027 -
Sascha Britschgi AC Milan Actif 110 / 128 40% 2 22.04.2027 -
Marco Pompetti Padova Actif 132 / 123 40% 2 22.04.2027 -
Mehdi Dorval Catanzaro Actif 133 / 125 40% 7 20.04.2027 -
Kirill Glebov CSKA Moscow Actif 131 / 128 40% 2 19.04.2027 -
Lucas Da Cunha Como Actif 145 / 152 40% 3 15.04.2027 -
Alessandro Sersanti Modena Actif 126 / 121 40% 3 11.04.2027 -
Giuseppe Leone Parma Actif 124 / 126 40% 3 10.04.2027 -
Nana Nuhu WAFA Actif 83 / 103 40% 3 08.04.2027 -
Riley Owen Stevenage Actif 101 / 110 40% 1 08.04.2027 -
Tommaso Cecotti Carpi Actif 97 / 102 40% 1 08.04.2027 -
Zack Nelson Ternana Actif 106 / 108 40% 1 28.03.2027 -
Borna Knezović Casarano Actif 99 / 113 40% 1 28.03.2027 -
Peter Amidu Acquah Asante Kotoko Actif 81 / 108 40% 1 19.03.2027 -
Trevoh Chalobah Como Actif 160 / 160 40% 4 07.03.2027 -
Thierry Rendall Correia Venezia Actif 133 / 138 40% 3 26.02.2027 -
Thalente Mbatha Orlando Pirates Actif 111 / 121 40% 1 20.02.2027 -
Oumar Solet Udinese Actif 136 / 150 40% 1 11.02.2027 -
Federico Gattoni Ascoli Actif 132 / 131 40% 1 08.02.2027 -
Matteo Zazza Altamura Actif 103 / 103 40% 1 25.01.2027 -
Amin Sarr Hellas Verona Actif 132 / 132 40% 3 01.01.2027 -
Santiago Pierotti Lecce Actif 129 / 135 40% 3 30.12.2026 -
Matija Frigan Parma Actif 128 / 132 40% 1 30.12.2026 -
Alessio Zerbin Frosinone Actif 131 / 121 40% 1 30.12.2026 -
Matteo Rover Reggiana Actif 117 / 113 40% 1 28.12.2026 -
Nicolò Cambiaghi Bologna Actif 147 / 133 40% 1 26.12.2026 -
Petar Stanić Ludogorets Actif 150 / 131 40% 1 25.12.2026 -
Giacomo Raspadori Atalanta Actif 152 / 148 40% 2 21.12.2026 -
Louis Leroux FC Nantes Actif 127 / 134 40% 1 21.12.2026 -
Nicolò Zaniolo Udinese Actif 138 / 144 40% 1 18.12.2026 -
Daniel Paraschiv Bnei Sakhnin Actif 114 / 113 40% 1 16.12.2026 -
Lorenzo Colombo Genoa Actif 129 / 129 40% 1 15.12.2026 -
Willem Geubbels Lecce Actif 136 / 122 40% 1 14.12.2026 -
Bongani Zungu Ajax Cape Town Actif 117 / 133 40% 1 05.12.2026 -
Etiosa Ighodaro Kaizer Chiefs Actif 106 / 120 40% 1 05.12.2026 -
Simphiwe Selepe Orlando Pirates Actif 102 / 120 40% 1 27.11.2026 -
Carlos Augusto Inter Actif 159 / 148 40% 1 22.11.2026 -
Gianluca Scamacca Atalanta Actif 147 / 140 40% 1 19.11.2026 -
Jurgen Ekkelenkamp Udinese Actif 126 / 124 40% 1 18.11.2026 -
David Miculescu FCSB Actif 120 / 127 40% 1 17.11.2026 -
Martín Ojeda Orlando City Actif 123 / 143 40% 1 15.11.2026 -
Sota Kitano Red Bull Salzburg Actif 133 / 122 40% 1 10.11.2026 -
Luca Moro Padova Actif 114 / 118 40% 1 07.11.2026 -
Mbekezeli Mbokazi Chicago Fire Actif 136 / 117 40% 1 05.11.2026 -
Valentín Aguiñagalde Temperley Actif 114 / 117 40% 1 07.10.2026 -
James Bacca La Equidad Actif 137 / 131 40% 1 11.09.2026 -
Marcel Ruiz Crystal Palace Actif 140 / 141 66% 1 24.08.2026 Approuver
Franck Kessié Atalanta Actif 136 / 143 40% 1 01.08.2026 -